Skyros current weather conditions

sailwx.info

Last reported at 2014-Jul-20 03:11 UTC.
Time now 2014-Jul-23 03:42 UTC

Location: N 38°58' E 024°29'.
View on Google Maps.

See reports from other nearby stations

  
Tides and Currents Weather Stations Pressure Air Temp Water Temp Dewpoint Dewpoint Depression Visibility Wind Speed Wind Dir Waves Ship Positions
date/time (UTC)wind fromknots sea level pressurealtimeterstation pressurevisibilityair tempwater tempwave heightnotes
2014-Jul-22 18:50 100 13 5.427.0
2014-Jul-22 16:50 100 11 29.0
2014-Jul-22 15:50 110 10 30.0
2014-Jul-22 14:50 110 12 30.0
2014-Jul-22 12:50 090 12 31.0
2014-Jul-22 11:50 080 13 30.0
2014-Jul-22 10:50 080 11 29.0
2014-Jul-22 09:50 030 8 30.0
2014-Jul-22 08:50 050 6 30.0
2014-Jul-22 05:50 27.0
2014-Jul-22 04:50 26.0
2014-Jul-22 03:50 21.0
2014-Jul-21 19:50 22.0
2014-Jul-21 18:50 23.0
2014-Jul-21 17:20 27.0
2014-Jul-21 16:50 27.0
2014-Jul-21 15:50 350 4 28.0
2014-Jul-21 12:50 310 8 29.0
2014-Jul-21 11:50 320 8 29.0
2014-Jul-21 10:50 360 8 28.0
2014-Jul-21 09:50 340 8 28.0
2014-Jul-21 08:20 350 9 28.0
2014-Jul-21 05:50 360 6 5.426.0
2014-Jul-21 04:50 010 4 5.426.0
2014-Jul-21 03:50 360 5 5.425.0